TimeEST,TemperatureF,Dew PointF,Humidity,Sea Level PressureIn,VisibilityMPH,Wind Direction,Wind SpeedMPH,Gust SpeedMPH,PrecipitationIn,Events,Conditions,WindDirDegrees,DateUTC
12:53 AM,-9999,-9999,N/A,30.16,8.0,SE,3.5,-,N/A,,Clear,130,2013-01-10 05:53:00
1:53 AM,-9999,-9999,N/A,30.20,10.0,NW,16.1,31.1,N/A,,Scattered Clouds,310,2013-01-10 06:53:00
2:53 AM,-9999,-9999,N/A,30.23,10.0,NW,11.5,21.9,N/A,,Scattered Clouds,310,2013-01-10 07:53:00
3:53 AM,-9999,-9999,N/A,30.25,10.0,NW,16.1,25.3,N/A,,Mostly Cloudy,310,2013-01-10 08:53:00
4:53 AM,-9999,-9999,N/A,30.28,10.0,NW,18.4,31.1,N/A,,Clear,310,2013-01-10 09:53:00
5:53 AM,-9999,-9999,N/A,30.32,10.0,NNW,12.7,20.7,N/A,,Clear,340,2013-01-10 10:53:00
6:53 AM,-9999,-9999,N/A,30.38,10.0,NNW,9.2,-,N/A,,Partly Cloudy,330,2013-01-10 11:53:00
7:53 AM,-9999,-9999,N/A,30.42,10.0,West,5.8,-,N/A,,Clear,280,2013-01-10 12:53:00
8:53 AM,-9999,-9999,N/A,30.44,10.0,WNW,11.5,17.3,N/A,,Clear,290,2013-01-10 13:53:00
10:53 AM,-9999,-9999,N/A,30.45,10.0,NW,15.0,20.7,N/A,,Clear,310,2013-01-10 15:53:00
11:53 AM,-9999,-9999,N/A,30.43,10.0,NW,9.2,18.4,N/A,,Clear,310,2013-01-10 16:53:00
12:53 PM,-9999,-9999,N/A,30.42,10.0,NW,10.4,19.6,N/A,,Clear,320,2013-01-10 17:53:00
1:53 PM,-9999,-9999,N/A,30.43,10.0,NNW,12.7,-,N/A,,Clear,340,2013-01-10 18:53:00
2:53 PM,46.0,21.0,37,30.44,10.0,NNW,15.0,21.9,N/A,,Clear,340,2013-01-10 19:53:00
3:53 PM,45.0,21.9,40,30.45,10.0,NW,10.4,20.7,N/A,,Clear,320,2013-01-10 20:53:00
4:53 PM,43.0,21.9,43,30.48,10.0,NNW,5.8,-,N/A,,Clear,330,2013-01-10 21:53:00
5:53 PM,41.0,21.9,47,30.49,10.0,NW,6.9,-,N/A,,Clear,320,2013-01-10 22:53:00
6:53 PM,39.9,23.0,51,30.51,10.0,NW,5.8,-,N/A,,Clear,310,2013-01-10 23:53:00
7:53 PM,37.9,23.0,55,30.53,10.0,WNW,3.5,-,N/A,,Clear,300,2013-01-11 00:53:00
8:53 PM,36.0,24.1,62,30.54,10.0,Calm,Calm,-,N/A,,Clear,0,2013-01-11 01:53:00
9:53 PM,28.9,24.1,82,30.54,10.0,ESE,3.5,-,N/A,,Clear,110,2013-01-11 02:53:00
10:53 PM,30.0,24.1,79,30.54,10.0,Calm,Calm,-,N/A,,Clear,0,2013-01-11 03:53:00
11:53 PM,28.0,24.1,85,30.54,10.0,Calm,Calm,-,N/A,,Clear,0,2013-01-11 04:53:00